Location: Unspecified
(42.9278°N, 0.0000°E)
Time: 04:04:47
(UTC+00:00)

NOAA 16 DEB - Visible Passes

Search period start: 04 April 2026 00:00
Search period end: 14 April 2026 00:00
Orbit: 801 x 826 km, 98.7° (Epoch: 29 March)

Date Brightness Start Highest point End Pass type
(mag) Time Alt. Az. Time Alt. Az. Time Alt. Az.
4 Apr ? 22:26:12 27° N 22:26:12 27° N 22:28:35 10° N visible
5 Apr ? 22:03:08 25° NNE 22:03:08 25° NNE 22:05:40 10° N visible
5 Apr ? 23:44:20 15° NW 23:44:20 15° NW 23:45:21 10° NW visible
6 Apr ? 21:40:03 21° NE 21:40:03 21° NE 21:42:32 10° N visible
6 Apr ? 23:21:15 21° NW 23:21:15 21° NW 23:23:03 10° NNW visible
7 Apr ? 21:16:58 16° NE 21:16:58 16° NE 21:19:06 10° NNE visible
7 Apr ? 22:58:10 27° NNW 22:58:10 27° NNW 23:00:30 10° NNW visible
8 Apr ? 20:53:52 10° NE 20:53:52 10° NE 20:54:32 10° NE visible
8 Apr ? 22:35:05 31° N 22:35:05 31° N 22:37:47 10° N visible
9 Apr ? 22:11:59 30° NNE 22:11:59 30° NNE 22:14:55 10° N visible
9 Apr ? 23:53:11 14° NW 23:53:11 14° NW 23:54:13 10° NW visible
10 Apr ? 21:48:53 25° NE 21:48:53 25° NE 21:51:51 10° N visible
10 Apr ? 23:30:06 21° NW 23:30:06 21° NW 23:32:02 10° NNW visible
11 Apr ? 21:25:47 19° NE 21:25:47 19° NE 21:28:33 10° NNE visible
11 Apr ? 23:07:00 29° NNW 23:07:00 29° NNW 23:09:34 10° NNW visible
12 Apr ? 21:02:41 13° NE 21:02:41 13° NE 21:04:41 10° NNE visible
12 Apr ? 22:43:54 35° NNW 22:43:54 35° NNW 22:46:54 10° NNW visible
13 Apr ? 22:20:47 36° NNE 22:20:47 36° NNE 22:24:04 10° N visible
